Plattsmouth, NE

8:10 PM CST on December 17, 2017 (GMT -0600)
Plattsmouth Municipal

Weather History for KPMV - November, 2013

Change the Weather History Date:

Monday, November 11, 2013

  Actual Average (KOFF) Record (KOFF)
Temperature  
Mean Temperature 33 °F -  
Max Temperature 46 °F 50 °F 71 °F (2005)
Min Temperature 19 °F 31 °F 18 °F (2013)
Degree Days  
Heating Degree Days 32    
Moisture  
Dew Point 26 °F    
Average Humidity 72    
Maximum Humidity 96    
Minimum Humidity 53    
Precipitation  
Precipitation 0.00 in - - ()
Sea Level Pressure  
Sea Level Pressure 30.39 in    
Wind  
Wind Speed 12 mph (NNW)    
Max Wind Speed 20 mph    
Max Gust Speed 29 mph    
Visibility 10 miles    
Events      
Averages and records for this station are not official NWS values.
T = Trace of Precipitation, MM = Missing Value Source: NWS Daily Summary

Daily Weather History Graph

Daily Weather History Graph

Search for Another Location

Airport or City:

Trip Planner

Search our weather history database for the weather conditions in past years. The results will help you decide how hot, cold, wet, or windy it might be!

Date:

Astronomy

Nov. 11, 2013 Rise Set
Actual Time 7:06 AM CST 5:08 PM CST
Civil Twilight 6:37 AM CST 5:37 PM CST
Nautical Twilight 6:04 AM CST 6:10 PM CST
Astronomical Twilight 5:32 AM CST 6:42 PM CST
Moon 1:52 PM CST (11/11) 12:50 AM CST (11/11)
Length of Visible Light 11h 00m
Length of Day
10h 01m
Waxing Gibbous, 66% of the Moon is Illuminated
Nov 11
Waxing Gibbous
Nov 17
Full
Nov 25
Last Quarter
Dec 2
New
Dec 9
First Quarter

Hourly Weather History & Observations

Time (CST) Temp. Windchill Dew Point Humidity Pressure Visibility Wind Dir Wind Speed Gust Speed Precip Events Conditions
12:15 AM 46.4 °F 41.5 °F 36.3 °F 68% 30.15 in 10.0 mi South 10.4 mph - N/A   Clear
12:35 AM 45.5 °F 40.3 °F 36.5 °F 71% 30.14 in 10.0 mi South 10.4 mph - N/A   Clear
1:35 AM 46.9 °F - 39.0 °F 74% 30.13 in 10.0 mi SSW 12.7 mph - N/A   Clear
1:55 AM 46.9 °F - 39.4 °F 75% 30.13 in 10.0 mi SSW 10.4 mph - N/A   Clear
2:15 AM 46.8 °F - 40.3 °F 78% 30.12 in 10.0 mi SSW 9.2 mph - N/A   Clear
2:35 AM 46.2 °F 42.2 °F 41.0 °F 82% 30.12 in 10.0 mi SSW 8.1 mph - N/A   Clear
2:55 AM 46.4 °F 41.9 °F 41.4 °F 83% 30.10 in 10.0 mi SSW 9.2 mph - N/A   Clear
3:15 AM 46.4 °F 41.9 °F 41.9 °F 84% 30.11 in 10.0 mi SSW 9.2 mph - N/A   Clear
3:35 AM 46.8 °F - 43.0 °F 87% 30.10 in 10.0 mi SSW 9.2 mph - N/A   Clear
3:55 AM 46.4 °F 41.9 °F 43.0 °F 88% 30.10 in 10.0 mi SSW 9.2 mph - N/A   Clear
4:15 AM 46.0 °F 42.5 °F 43.2 °F 90% 30.10 in 10.0 mi SW 6.9 mph - N/A   Clear
4:35 AM 45.7 °F 42.0 °F 43.5 °F 92% 30.10 in 10.0 mi SW 6.9 mph - N/A   Clear
4:55 AM 45.7 °F 41.0 °F 43.7 °F 93% 30.10 in 10.0 mi SW 9.2 mph - N/A   Clear
5:15 AM 44.8 °F 41.6 °F 42.8 °F 93% 30.12 in 10.0 mi WNW 5.8 mph - N/A   Scattered Clouds
5:35 AM 44.6 °F 43.1 °F 43.0 °F 94% 30.13 in 7.0 mi NW 3.5 mph - N/A   Overcast
5:55 AM 45.0 °F - 43.7 °F 95% 30.13 in 7.0 mi Calm Calm - N/A   Overcast
6:15 AM 43.2 °F 40.5 °F 41.9 °F 95% 30.13 in 7.0 mi WNW 4.6 mph - N/A   Scattered Clouds
6:35 AM 42.8 °F 38.0 °F 41.5 °F 95% 30.14 in 7.0 mi WNW 8.1 mph - N/A   Clear
6:55 AM 42.1 °F 35.7 °F 41.0 °F 96% 30.16 in 7.0 mi NW 11.5 mph - N/A   Clear
7:15 AM 42.4 °F 36.5 °F 41.4 °F 96% 30.18 in 10.0 mi NNW 10.4 mph - N/A   Mostly Cloudy
7:35 AM 42.6 °F 37.8 °F 40.8 °F 93% 30.19 in 10.0 mi North 8.1 mph - N/A   Overcast
7:55 AM 42.1 °F 33.9 °F 39.0 °F 89% 30.22 in 10.0 mi North 17.3 mph 24.2 mph N/A   Overcast
8:15 AM 39.4 °F 30.1 °F 34.0 °F 81% 30.24 in 10.0 mi North 18.4 mph 24.2 mph N/A   Overcast
8:35 AM 39.2 °F 30.2 °F 32.4 °F 76% 30.26 in 10.0 mi NNE 17.3 mph 28.8 mph N/A   Overcast
8:55 AM 39.2 °F 30.8 °F 32.2 °F 76% 30.28 in 10.0 mi North 15.0 mph 27.6 mph N/A   Overcast
9:15 AM 38.7 °F 29.8 °F 32.0 °F 77% 30.29 in 10.0 mi North 16.1 mph 27.6 mph N/A   Overcast
9:35 AM 38.3 °F 28.7 °F 32.0 °F 78% 30.30 in 10.0 mi North 18.4 mph 27.6 mph N/A   Overcast
9:55 AM 37.8 °F 28.3 °F 32.0 °F 80% 30.31 in 10.0 mi North 17.3 mph 24.2 mph N/A   Overcast
10:15 AM 36.7 °F 27.2 °F 31.3 °F 81% 30.33 in 10.0 mi North 16.1 mph 24.2 mph N/A   Overcast
10:35 AM 35.8 °F 26.9 °F 29.8 °F 79% 30.34 in 10.0 mi North 13.8 mph 21.9 mph N/A   Overcast
10:55 AM 36.5 °F 27.0 °F 29.3 °F 75% 30.35 in 10.0 mi North 16.1 mph 25.3 mph N/A   Overcast
11:15 AM 37.9 °F 28.9 °F 28.8 °F 70% 30.36 in 10.0 mi North 16.1 mph 23.0 mph N/A   Overcast
11:35 AM 38.3 °F 29.0 °F 28.8 °F 69% 30.36 in 10.0 mi North 17.3 mph 23.0 mph N/A   Overcast
11:55 AM 37.4 °F 28.5 °F 27.3 °F 67% 30.37 in 10.0 mi North 15.0 mph 25.3 mph N/A   Overcast
12:15 PM 35.6 °F 26.2 °F 25.7 °F 67% 30.38 in 10.0 mi North 15.0 mph 23.0 mph N/A   Mostly Cloudy
12:35 PM 35.1 °F 25.5 °F 25.2 °F 67% 30.39 in 10.0 mi North 15.0 mph 25.3 mph N/A   Mostly Cloudy
12:55 PM 34.3 °F 25.5 °F 24.1 °F 66% 30.40 in 10.0 mi North 12.7 mph 23.0 mph N/A   Overcast
1:15 PM 34.3 °F 25.9 °F 23.9 °F 66% 30.40 in 10.0 mi North 11.5 mph 21.9 mph N/A   Overcast
1:35 PM 35.6 °F 24.8 °F 23.7 °F 62% 30.41 in 10.0 mi North 19.6 mph 24.2 mph N/A   Overcast
1:55 PM 35.8 °F 26.5 °F 23.4 °F 61% 30.42 in 10.0 mi North 15.0 mph 25.3 mph N/A   Overcast
2:15 PM 33.1 °F 22.2 °F 22.5 °F 65% 30.43 in 10.0 mi North 17.3 mph 25.3 mph N/A   Overcast
2:35 PM 32.4 °F 21.7 °F 21.9 °F 65% 30.44 in 10.0 mi North 16.1 mph 25.3 mph N/A   Mostly Cloudy
2:55 PM 31.8 °F 21.0 °F 20.3 °F 62% 30.46 in 10.0 mi North 16.1 mph 26.5 mph N/A   Scattered Clouds
3:15 PM 30.0 °F 18.3 °F 19.9 °F 66% 30.47 in 10.0 mi North 17.3 mph 25.3 mph N/A   Mostly Cloudy
3:35 PM 28.2 °F 17.7 °F 20.1 °F 72% 30.48 in 10.0 mi North 12.7 mph 21.9 mph N/A   Overcast
3:55 PM 28.0 °F 17.5 °F 19.6 °F 71% 30.50 in 10.0 mi North 12.7 mph 23.0 mph N/A   Mostly Cloudy
4:15 PM 27.5 °F 15.4 °F 17.6 °F 66% 30.50 in 10.0 mi NNW 16.1 mph 20.7 mph N/A   Scattered Clouds
4:35 PM 27.5 °F 18.0 °F 16.3 °F 63% 30.51 in 10.0 mi North 10.4 mph 19.6 mph N/A   Mostly Cloudy
4:55 PM 27.5 °F 16.8 °F 14.5 °F 58% 30.52 in 10.0 mi North 12.7 mph 18.4 mph N/A   Scattered Clouds
5:15 PM 27.5 °F 17.4 °F 13.8 °F 56% 30.53 in 10.0 mi North 11.5 mph 18.4 mph N/A   Scattered Clouds
5:35 PM 27.5 °F 16.3 °F 13.5 °F 56% 30.54 in 10.0 mi North 13.8 mph 19.6 mph N/A   Scattered Clouds
5:55 PM 27.3 °F 17.1 °F 12.2 °F 53% 30.56 in 10.0 mi North 11.5 mph 19.6 mph N/A   Scattered Clouds
6:15 PM 27.1 °F 16.4 °F 12.0 °F 53% 30.57 in 10.0 mi North 12.7 mph 20.7 mph N/A   Clear
6:35 PM 26.6 °F 14.7 °F 11.3 °F 53% 30.58 in 10.0 mi North 15.0 mph - N/A   Clear
6:55 PM 26.6 °F 15.7 °F 11.5 °F 53% 30.59 in 10.0 mi North 12.7 mph 20.7 mph N/A   Clear
7:15 PM 26.4 °F 15.5 °F 11.1 °F 53% 30.60 in 10.0 mi North 12.7 mph 19.6 mph N/A   Clear
7:35 PM 26.2 °F 15.2 °F 11.3 °F 53% 30.62 in 10.0 mi North 12.7 mph 21.9 mph N/A   Clear
7:55 PM 25.7 °F 14.6 °F 11.3 °F 55% 30.62 in 10.0 mi North 12.7 mph 19.6 mph N/A   Clear
8:15 PM 25.5 °F 13.8 °F 11.5 °F 55% 30.63 in 10.0 mi North 13.8 mph 18.4 mph N/A   Clear
8:35 PM 25.3 °F 14.1 °F 11.8 °F 57% 30.64 in 10.0 mi North 12.7 mph 17.3 mph N/A   Clear
8:55 PM 25.0 °F 13.1 °F 12.0 °F 58% 30.65 in 10.0 mi North 13.8 mph - N/A   Clear
9:15 PM 24.8 °F 12.9 °F 10.9 °F 56% 30.67 in 10.0 mi North 13.8 mph 18.4 mph N/A   Clear
9:35 PM 24.3 °F 13.3 °F 10.8 °F 56% 30.69 in 10.0 mi North 11.5 mph - N/A   Clear
9:55 PM 23.5 °F 12.4 °F 10.6 °F 58% 30.70 in 10.0 mi North 11.5 mph 18.4 mph N/A   Clear
10:15 PM 22.5 °F 11.1 °F 10.8 °F 61% 30.71 in 10.0 mi North 11.5 mph 19.6 mph N/A   Clear
10:35 PM 21.6 °F 11.3 °F 10.8 °F 63% 30.72 in 10.0 mi North 9.2 mph - N/A   Clear
10:55 PM 20.8 °F 10.4 °F 10.8 °F 65% 30.73 in 10.0 mi North 9.2 mph - N/A   Clear
11:15 PM 20.3 °F 10.6 °F 10.9 °F 67% 30.74 in 10.0 mi North 8.1 mph - N/A   Clear
11:35 PM 20.3 °F 7.2 °F 10.4 °F 66% 30.75 in 10.0 mi North 13.8 mph 19.6 mph N/A   Clear
11:55 PM 19.9 °F 6.7 °F 9.9 °F 65% 30.75 in 10.0 mi North 13.8 mph 19.6 mph N/A   Clear